Overview Statistics Trail Chart Weather Telemetry Raw packets
 

This is the latest recevied weather packets stored in our database for station/object IU3OVK-13. If no packets are shown the sender has not sent any weather packets the latest 10 day(s).

<< 39 40 41 42 43 >>
Time Temp. Humidity Pressure Rain* Wind** Luminosity Snow
1787824778 41.67° C 84% 1012.5 hPa - - - -
1787824158 42.78° C 84% 1008.9 hPa - - - -
1787823538 43.33° C 86% 1007.5 hPa - - - -
1787822918 43.89° C 84% 1003.1 hPa - - - -
1787822297 42.22° C 91% 1006.3 hPa - - - -
1787821677 38.89° C 99% 1011.5 hPa - - - -
1787821057 37.78° C 99% 1010.6 hPa - - - -
1787820475 35.56° C 99% 1010.9 hPa - - - -
1787820437 35.56° C 99% 1010.9 hPa - - - -
1787819817 35.56° C 99% 1012.3 hPa - - - -
1787819196 36.67° C 99% 1010.1 hPa - - - -
1787818576 33.89° C 99% 1012.2 hPa - - - -
1787817957 33.89° C 99% 1012.2 hPa - - - -
1787817334 28.89° C 99% 1011.8 hPa - - - -
1787816714 31.11° C 99% 1011.2 hPa - - - -
1787816093 30° C 99% 1011.6 hPa - - - -
1787814853 27.22° C 99% 1011.4 hPa - - - -
1787814233 28.89° C 99% 1011.1 hPa - - - -
1787813613 26.67° C 99% 1011.4 hPa - - - -
1787812993 25° C 99% 1010.3 hPa - - - -
1787812372 22.78° C 99% 1009.8 hPa - - - -
1787811752 21.67° C 99% 1009.8 hPa - - - -
1787811132 21.67° C 99% 1010.1 hPa - - - -
1787810512 22.78° C 99% 1010.2 hPa - - - -
1787809892 21.11° C 99% 1009.8 hPa - - - -

* Rain since midnight (hover to see other rain measurements)
** Current wind speed in m/s (hover to see current wind gust speed)